Flag for Germany Weather past 2 weeks in Leutkirch im Allgäu, Baden-Württemberg, Germany

Now
31 °F

Overcast.


Feels Like: 31 °F
Forecast: 23 / 32 °F
Wind: 2 mph from South

Location: Kempten

Current Time: Dec 26, 2014 at 4:02:11 PM

Latest Report: Dec 26, 2014 at 3:00 PM


Visibility: 11 mi

Pressure: 30.43 "Hg

Humidity: 87%

Dew point: 27 °F

Location of Leutkirch im AllgäuLocation

Historic Weather in Leutkirch im Allgäu — Graph

°F

Leutkirch im Allgäu temperature yesterday

Maximum temperature yesterday: 46 °F (at 1:00 AM)
Minimum temperature yesterday: 35 °F (at 8:00 PM)
Average temperature yesterday: 39 °F

Past Weeks' High & Low Weather Summary

 TemperatureHumidityPressure
High56 °F (Dec 23, 1:00 PM)98% (Dec 16, 8:00 AM)30.58 "Hg (Dec 16, 8:00 AM)
Low30 °F (Dec 26, 9:00 AM)19% (Dec 23, 12:00 PM)29.84 "Hg (Dec 12, 9:00 PM)
Average41 °F73%30.18 "Hg
* Reported Dec 11 3:00 PM — Dec 26 3:00 PM, Leutkirch im Allgäu, Weather by CustomWeather, © 2014

Note: Actual official high and low records may vary slightly from our data, if they occured in-between our weather recording intervals... More about our weather records

Advertising

Leutkirch im Allgäu weather history for previous 24 hours

 ConditionsComfort  
Time TempWeatherWind HumidityBarometerVisibility
3:00 PM
Dec 26
31 °FOvercast.2 mph87%30.43 "Hg11 mi
2:00 PM31 °FLight snow. Low clouds.2 mph85%30.43 "Hg6 mi
1:00 PM31 °FOvercast.2 mph87%30.44 "Hg11 mi
12:00 PM31 °FLight snow. Low clouds.1 mph87%30.45 "Hg3 mi
11:00 AM31 °FSnow flurries. Low clouds.2 mph90%30.47 "Hg7 mi
9:00 AM30 °FSnow. Low clouds.2 mph96%30.45 "Hg0 mi
8:00 AM32 °FSnow. Low clouds.5 mph89%30.42 "Hg1 mi
7:00 AM32 °FLight snow. Low clouds.3 mph94%30.41 "Hg3 mi
6:00 AM32 °FSnow. Overcast.2 mph95%30.41 "Hg1 mi
5:00 AM33 °FLight snow. Overcast.3 mph88%30.41 "Hg2 mi
3:00 AM34 °FOvercast.3 mph79%30.43 "Hg22 mi
2:00 AM33 °FOvercast.5 mph81%30.41 "Hg19 mi
1:00 AM33 °FClear.3 mph84%30.42 "Hg18 mi
12:00 AM34 °FPassing clouds.3 mph84%30.42 "Hg16 mi
11:00 PM
Dec 25
35 °FLight snow. Overcast.3 mph83%30.42 "Hg14 mi
9:00 PM35 °FLight snow. Overcast.3 mph81%30.42 "Hg22 mi
8:00 PM35 °FOvercast.3 mph81%30.42 "Hg25 mi
7:00 PM35 °FOvercast.5 mph74%30.41 "Hg31 mi
6:00 PM35 °FOvercast.3 mph82%30.39 "Hg25 mi
5:00 PM35 °FOvercast.1 mph90%30.37 "Hg12 mi
Weather by CustomWeather, © 2014

See weather overviewHow to use our weather pages